Location: Waco, TX
(31.5480°N, 97.1670°W)
Time: 22:26:54
(UTC-05:00)

ISS - Pass Details

Date: 19 May 2017
Orbit: 401 x 408 km, 51.6° (Epoch: 24 June)

Event Time Altitude Azimuth Distance (km) Brightness Sun altitude
Rises 06:59:05 0° 326° (NW) 2,320 -0.1 5.0°
Reaches altitude 10° 07:01:22 10° 339° (NNW) 1,457 -1.0 5.4°
Maximum altitude 07:04:12 27° 39° (NE) 817 -1.3 6.0°
Drops below altitude 10° 07:07:01 10° 99° (E) 1,447 0.3 6.6°
Sets 07:09:14 0° 112° (ESE) 2,286 0.8 7.0°
